sat.trackr.live / text

‹ back to catalog

STARLINK-11494 [DTC]

NORAD 62272 · 2024-237F

PAYLOAD ACTIVE UNKNOWN

§ Identity

Operator
Country
US
Launch date
2024-12-08
Launch site
AFETR
Launch vehicle
Mass (kg)
RCS (m²)

Purposes: comms

External: N2YO · Heavens-Above · Gunter

§ Orbital elements

Epoch: 2026-05-24T21:21:25.137792Z

Period
91.67 min
Inclination
43.0000°
Eccentricity
0.0001826
Mean motion
15.70877546 rev/d
Perigee alt
355.2 km
Apogee alt
357.6 km
Semi-major
6,734.5 km
B*
1.3021e-3
RAAN
317.5652°
Arg perigee
272.3335°
Mean anomaly
87.7324°
Rev number
8,498

§ Raw data

STARLINK-11494 [DTC]1 62272U 24237F   26144.88987428  .00170364  00000+0  13021-2 0  99972 62272  43.0000 317.5652 0001826 272.3335  87.7324 15.70877546 84989

JSON: /api/v1/satellites/62272 · /tle

For live sub-satellite position, see the globe view (requires WebGL).

§ Visibility from observer

Set your observer location to see the next 7 days of passes ≥ 10°. The values pass through the URL so the page stays shareable.

No JS? Fill the form by hand. The geolocation button needs JavaScript.